Погода в Тунгокочене

Хотите узнать прогноз погоды в Тунгокочене? Тогда Вам сюда: Погода в Тунгокочене

Поиск расширенной информации на нашем сайте:

Полезная информация:

Новости сайта



02.01.2020
Опубликован Долгосрочный прогноз погоды по городам России и ближнего зарубежья на январь 2020 года.
Карты: Прогноз на январь и февраль 2020 года, Сравнение прогнозируемой аномалии приземной температуры воздуха на январь 2020 года по разным моделям.




Погода в Тунгокочене - сегодня

Время (UTC), дата Ветер
(°,м/с) 
Видим.   Явления Облачность Т
(°С)
Тd
(°С)
f(%) Тe
(°С)
Pmin
(гПа)
dP
(гПа)
Po
(мм)
O2
(г/м3)
Тmin Tmax R s Состояние
почвы
21 23.11.20 260 (З) н/о    8/8 1000 м 
[Sc]
-9.6 -11 90 -9  1023  0.7  691  290           
00 24.11.20 240 (ЮЗ) 20000 м    3/3 1000 м 
[Sc]
-14.4 -16 88 -14  1027.6  2.4  693  296  -14.1      равномерный
сухой снег
100% 
03 24.11.20 170 (Ю) 20000 м    9/9 1000 м 
[Sc]
-10.9 -13.9 78 -11  1027.7  1.4  694  292  -16.9         
06 24.11.20 010 (С) 20000 м    8/3 1000 м верхняя 
[Sc|Ci fib]
-4.9 -15.8 42 -9  1025.6  0.2  694  286           
09 24.11.20 010 (С) н/о    3/0 средняя 
[Ac lent]
-12.1 -20 52 -12  1029.5  0.9  695  294           
12 24.11.20 130 (ЮВ) н/о    3/0 верхняя 
[Ci fib]
-14.9 -18.8 72 -15  1032.1  1.3  696  298    -3.5       
15 24.11.20 280 (З) н/о    6/0 верхняя 
[Ci ing]
-17.2 -21.5 69 -17  1035  1.7  697  301           
18 24.11.20 210 (ЮЗ) н/о    ясно 
-20.3 -23.4 76 -21  1037.9  1.4  698  306           
21 24.11.20 тихо ()   н/о    ясно 
-24.6 -27.1 80 -25  1041  699  311           
00 25.11.20 230 (ЮЗ) 20000 м    3/0 верхняя 
[Ci fib]
-26.7 -29.9 74 -27  1043.9  1.7  700  315  -27.4      равномерный
сухой снег
100% 
03 25.11.20 220 (ЮЗ) 20000 м    ясно 
-13.6 -21 54 -16  1039  0.9  701  299           
06 25.11.20 290 (З) 20000 м    ясно 
-9 -22.3 33 -12  1036.7  -0.4  701  293           
09 25.11.20 270 (З) н/о    ясно 
-16.7 -23.7 55 -17  1040.5  0.5  701  302           
12 25.11.20 тихо ()   н/о    ясно 
-25.2 -29.1 70 -25  1045  0.6  702  313    -8.1       
15 25.11.20 тихо ()   н/о    ясно 
-26 -29.4 73 -26  1045.3  702  314           
18 25.11.20 320 (СЗ) н/о    ясно 
-28.1 -31.3 74 -29  1046.8  0.4  702  317           
21 25.11.20 тихо ()   н/о    ясно 
-29.5 -33.2 70 -30  1047.4  0.1  702  319           
00 26.11.20 тихо ()   20000 м    ясно 
-30.3 -33.9 71 -30  1048.5  0.6  702  320  -31.2      равномерный
сухой снег
100% 
03 26.11.20 тихо ()   20000 м    ясно 
-19.2 -25.1 60 -19  1043.6  0.2  703  306           
06 26.11.20 010 (С) 20000 м    ясно 
-10.5 -20.9 42 -16  1038.6  -1.1  702  295           
09 26.11.20 010 (С) н/о    ясно 
-19.3 -24.9 61 -22  1043.3  0.8  702  306           
12 26.11.20 тихо ()   н/о    ясно 
-25.4 -28.8 73 -25  1043.3  0.8  702  314    -10.4       
15 26.11.20 230 (ЮЗ) н/о    ясно 
-25.9 -28.9 76 -26  1046.8  -0.1  703  314           
18 26.11.20 тихо ()   н/о    ясно 
-29 -32.4 72 -29  1048.2  703  319           
21 26.11.20 тихо ()   н/о    ясно 
-30.4 -34.1 70 -30  1048.9  703  320           
Время (UTC), дата Ветер
(°,м/с) 
Видим.   Явления Облачность Т
(°С)
Тd
(°С)
f(%) Тe
(°С)
Pmin
(гПа)
dP
(гПа)
Po
(мм)
O2
(г/м3)
Тmin Tmax R s Состояние
почвы

Для получения пояснительной информации подведите курсор к названию столбца.

ПОГОДА в Тунгокочене - архив

Всё, что Вы хотите узнать о погоде в Тунгокочене - удобно и подробно!

Выберите нужную дату (начиная с 1 января 2019* года) и нажмите кнопку "Найти".
Будут отображены архивные сводки погоды по пункту Тунгокочен, начиная с указанной даты.


Отображать данные в формате CSV (для использования в таблицах Excel)


Внимание! Наш архив погоды предназначен исключительно для личного некоммерческого использования в познавательных целях. Если Вам необходимы официальные справки о состоянии погоды (для производственных, юридических, коммерческих и т.п. целей), обращайтесь в органы Росгидромета.

*Примечание: данная дата относится к архиву по метеостанциям СССР (Россия, СНГ, Балтия).
Архив по метеостанциям Зарубежной Европы и Азии (кроме Китая) хранится 10 дней, по другим регионам земного шара (Китай, Африка, Америка, Австралия, Океания) - 1 день.

Тунгокочен - район местоположения метеостанции


Название, широта, долгота, высота метеостанции:
Тунгокочен 53.5°ш. 115.6°д. 811 м над ур. моря [Российская Федерация]

Дополнительная информация

В oтличие oт бoльшинства пoгoдных сайтoв мы публикуем пoдрoбную метеoинфoрмацию в детальнoм прoфессиoнальнoм фoрмате.

Характеристики температуры и влажнoсти вoздуха измеряются на высoте 2 м в тени вдали oт зданий и деревьев.
Скoрoсть ветра измеряется на высoте 10 м (на урoвне рoста челoвека скoрoсть ветра ниже в 1.5-2 раза). Если метеoстанция нахoдится в гoрoде или в лесу, тo скoрoсть ветра занижена на 2-4 м/с пo сравнению с oткрытым местoм. Скoрoсть ветра над акватoриями крупных рек и oзёр, а также на вершинах хoлмoв на 2-5 м/с выше, чем в oбычных услoвиях.
Атмoсфернoе давление в разных тoчках местнoсти мoжет значительнo oтличаться oт давления на метеoстанции, в зависимoсти oт услoвий рельефа (при пoдъёме на 10 м давление пoнижается примернo на 1 мм рт.ст.).